ATLAS 5 CENTAUR DEB, 44647

Orbit data source: Space-Track

ATLAS 5 CENTAUR DEB, 44647 is space debris in HEO originally from a launch on Wed, 17 Oct 2018 UTC launched from the Air Force Eastern Test Range (AFETR). Debris objects in space refer to the collection of defunct objects orbiting the Earth. Examples of debris include non-operational satellites, rocket bodies, and fragments generated from explosions, collisions, or faulty payload assembly.

Loading next visibility...
Identifier
44647, 2018-079H
Orbit
HEO
Country
Flag of USUS
Related business
Flag of USUnited Launch Alliance/Lockheed Martin (US)
Manufacturer
ULA Decatur
Mission
Spacecraft
Bus & Motor
Unknown
Mass
Unknown
Launch date (UTC)
2018-10-17 (7 years ago)
Launch vehicle
Unknown
Launch site
Air Force Eastern Test Range (AFETR)
Object type
Payload
Rocket body
Debris
Shape & HBR
Unknown shape, 1.1 m
Radar Cross Section
RCS unknown

Expand to show TLE details & history
Last TLE update: 1 week ago

TLE from 1 week ago
0 ATLAS 5 CENTAUR DEB
1 44647U 18079H   25288.82143735 -.00000156  00000-0  00000+0 0  9990
2 44647  13.2105  42.8554 4617802 301.4801  21.5213  1.88053281 47980
Epoch: 2025-10-15T19:42Z
TLE epoch observation values (Epoch: 2025-10-15T19:42:52.187Z)
Latitude
-0.00004°
Longitude
82.54052°
Altitude
11,175.38 km
Speed
5.571 km/s
True Right ascension
02h 51m 23s
True Declination
0° 00' 00"
Sunlit
Object was in daylight at epoch
Visualization orbit readout
Latitude
Unknown
Longitude
Unknown
Altitude
Unknown
Speed
Unknown
Apparent Right ascension
Unknown
Apparent Declination
Unknown
Sunlit
N/A
Visualization observer readout
Local Sidereal Time
16:05:00
Azimuth
Unknown
Elevation
Unknown
Doppler factor
Unknown
Orbital elements
Apogee altitude
34,153.714 km
Perigee altitude
8,545.478 km
Semi-major axis
27,727.733 km
Eccentricity
0.46178
Inclination
13.2105°
RAAN
42.8554°
Arg. of periapsis
301.4801°
True anomaly
58.72976°
Mean anomaly
21.5213°
Eccentric anomaly
37.70176°
Mean motion
0.47008 °/min
Orbital period
765.83 mins
BSTAR
0
Loading maneuver chart data...
Computing Atmospheric mass density...

Documentation

Showing up to 5 results
|